Minden, LA

5:05 AM CST on February 21, 2017 (GMT -0600)
Minden

Weather History for KMNE - September, 2013

Change the Weather History Date:

Thursday, September 19, 2013

  Actual Average (KBAD) Record (KBAD)
Temperature  
Mean Temperature 85 °F -  
Max Temperature 97 °F 83 °F 101 °F (2010)
Min Temperature 74 °F 62 °F 55 °F (2012)
Cooling Degree Days 20    
Growing Degree Days 35 (Base 50)    
Moisture  
Dew Point 68 °F    
Average Humidity 62    
Maximum Humidity 91    
Minimum Humidity 33    
Precipitation  
Precipitation 0.13 in - - ()
Sea Level Pressure  
Sea Level Pressure 29.98 in    
Wind  
Wind Speed 6 mph (SE)    
Max Wind Speed 18 mph    
Max Gust Speed 29 mph    
Visibility 10 miles    
Events Rain , Thunderstorm    
Averages and records for this station are not official NWS values.
T = Trace of Precipitation, MM = Missing Value Source: NWS Daily Summary

Daily Weather History Graph

Daily Weather History Graph

Search for Another Location

Airport or City:

Trip Planner

Search our weather history database for the weather conditions in past years. The results will help you decide how hot, cold, wet, or windy it might be!

Date:

Astronomy

Sep. 19, 2013 Rise Set
Actual Time 6:59 AM CDT 7:13 PM CDT
Civil Twilight 6:35 AM CDT 7:38 PM CDT
Nautical Twilight 6:06 AM CDT 8:06 PM CDT
Astronomical Twilight 5:37 AM CDT 8:35 PM CDT
Moon 7:16 PM CDT (9/19) 7:06 AM CDT (9/19)
Length of Visible Light 13h 03m
Length of Day
12h 13m
Full, 100% of the Moon is Illuminated
Sep 19
Full
Sep 26
Last Quarter
Oct 4
New
Oct 11
First Quarter
Oct 18
Full

Hourly Weather History & Observations

Time (CDT) Temp. Heat Index Dew Point Humidity Pressure Visibility Wind Dir Wind Speed Gust Speed Precip Events Conditions
12:15 AM 81.9 °F 84.8 °F 68.0 °F 63% 29.99 in 10.0 mi SE 5.8 mph - N/A   Clear
12:35 AM 81.5 °F 84.4 °F 68.2 °F 64% 29.99 in 10.0 mi SE 8.1 mph - N/A   Clear
12:55 AM 81.0 °F 83.8 °F 68.4 °F 65% 30.00 in 10.0 mi SE 4.6 mph - N/A   Clear
1:15 AM 80.6 °F 83.5 °F 68.5 °F 67% 30.00 in 10.0 mi SE 6.9 mph - N/A   Clear
1:35 AM 80.1 °F 82.8 °F 68.5 °F 68% 30.00 in 10.0 mi SE 6.9 mph - N/A   Clear
1:55 AM 79.3 °F - 68.5 °F 69% 30.00 in 10.0 mi SE 4.6 mph - N/A   Clear
2:15 AM 79.0 °F - 68.7 °F 71% 30.00 in 10.0 mi SE 5.8 mph - N/A   Clear
2:35 AM 78.6 °F - 68.9 °F 72% 30.00 in 10.0 mi SSE 3.5 mph - N/A   Clear
2:55 AM 78.3 °F - 68.9 °F 73% 29.99 in 10.0 mi SE 4.6 mph - N/A   Clear
3:15 AM 78.3 °F - 68.9 °F 73% 29.99 in 10.0 mi SE 4.6 mph - N/A   Clear
3:35 AM 77.9 °F - 68.9 °F 74% 29.99 in 10.0 mi SE 5.8 mph - N/A   Clear
3:55 AM 77.5 °F - 69.1 °F 75% 29.99 in 10.0 mi SE 4.6 mph - N/A   Clear
4:15 AM 77.0 °F - 69.1 °F 76% 29.99 in 10.0 mi SE 3.5 mph - N/A   Clear
4:35 AM 76.5 °F - 69.1 °F 78% 29.99 in 10.0 mi SE 4.6 mph - N/A   Clear
4:55 AM 75.6 °F - 68.9 °F 80% 30.00 in 10.0 mi ESE 3.5 mph - N/A   Clear
5:15 AM 75.4 °F - 69.3 °F 81% 30.00 in 10.0 mi SE 3.5 mph - N/A   Clear
5:35 AM 75.2 °F - 69.3 °F 82% 30.00 in 10.0 mi Calm Calm - N/A   Clear
5:55 AM 75.0 °F - 69.3 °F 82% 30.00 in 10.0 mi ESE 3.5 mph - N/A   Clear
6:15 AM 74.7 °F - 69.4 °F 84% 30.01 in 10.0 mi East 3.5 mph - N/A   Clear
6:35 AM 74.3 °F - 69.4 °F 85% 30.01 in 10.0 mi ESE 3.5 mph - N/A   Clear
6:55 AM 74.3 °F - 69.4 °F 85% 30.02 in 10.0 mi ESE 3.5 mph - N/A   Clear
7:15 AM 74.3 °F - 69.8 °F 86% 30.02 in 10.0 mi ESE 3.5 mph - N/A   Clear
7:35 AM 75.0 °F - 69.8 °F 84% 30.03 in 10.0 mi ESE 4.6 mph - N/A   Clear
7:55 AM 75.9 °F - 70.0 °F 82% 30.03 in 10.0 mi SE 4.6 mph - N/A   Clear
8:15 AM 77.9 °F - 70.3 °F 77% 30.04 in 10.0 mi SE 5.8 mph - N/A   Clear
8:35 AM 79.3 °F - 70.3 °F 74% 30.04 in 10.0 mi SE 6.9 mph - N/A   Clear
8:55 AM 80.6 °F 84.2 °F 70.7 °F 72% 30.04 in 10.0 mi ESE 8.1 mph - N/A   Clear
9:15 AM 82.2 °F 86.4 °F 70.9 °F 68% 30.04 in 10.0 mi SE 6.9 mph - N/A   Clear
9:35 AM 82.8 °F 87.2 °F 70.9 °F 67% 30.04 in 10.0 mi SE 5.8 mph - N/A   Clear
9:55 AM 84.9 °F 90.1 °F 70.9 °F 63% 30.04 in 10.0 mi SSE 4.6 mph - N/A   Clear
10:15 AM 85.6 °F 90.1 °F 70.0 °F 59% 30.04 in 10.0 mi SSE 6.9 mph - N/A   Clear
10:35 AM 87.1 °F 91.3 °F 69.3 °F 55% 30.04 in 10.0 mi South 5.8 mph - N/A   Clear
10:55 AM 88.7 °F 93.5 °F 69.4 °F 53% 30.04 in 10.0 mi ESE 8.1 mph - N/A   Clear
11:15 AM 90.0 °F 94.5 °F 69.1 °F 50% 30.04 in 10.0 mi SSE 5.8 mph - N/A   Scattered Clouds
11:35 AM 89.8 °F 93.3 °F 67.6 °F 48% 30.04 in 10.0 mi South 4.6 mph - N/A   Scattered Clouds
11:55 AM 90.7 °F 94.1 °F 67.1 °F 46% 30.03 in 10.0 mi SSE 5.8 mph - N/A   Clear
12:15 PM 89.8 °F 92.9 °F 67.3 °F 47% 30.02 in 10.0 mi East 6.9 mph - N/A   Scattered Clouds
12:35 PM 89.8 °F 92.1 °F 65.8 °F 45% 30.01 in 10.0 mi East 3.5 mph - N/A   Scattered Clouds
12:55 PM 90.9 °F 93.5 °F 66.4 °F 44% 30.01 in 10.0 mi East 5.8 mph - N/A   Mostly Cloudy
1:15 PM 91.8 °F 93.8 °F 65.1 °F 41% 30.00 in 10.0 mi ESE 4.6 mph - N/A   Mostly Cloudy
1:35 PM 93.7 °F 95.8 °F 64.8 °F 38% 29.99 in 10.0 mi East 9.2 mph - N/A   Mostly Cloudy
1:55 PM 95.9 °F 97.5 °F 63.5 °F 34% 29.97 in 10.0 mi SE 5.8 mph - N/A   Mostly Cloudy
2:15 PM 95.2 °F 96.8 °F 63.5 °F 35% 29.96 in 10.0 mi ESE 9.2 mph - N/A   Scattered Clouds
2:35 PM 95.7 °F 97.2 °F 63.3 °F 34% 29.96 in 10.0 mi East 8.1 mph 19.6 mph N/A   Mostly Cloudy
2:55 PM 96.1 °F 97.8 °F 63.1 °F 34% 29.94 in 10.0 mi East 9.2 mph - N/A   Mostly Cloudy
3:15 PM 96.3 °F 97.6 °F 62.6 °F 33% 29.93 in 10.0 mi SE 10.4 mph - N/A   Scattered Clouds
3:35 PM 95.7 °F 97.2 °F 63.1 °F 34% 29.92 in 10.0 mi ENE 5.8 mph - N/A   Mostly Cloudy
3:55 PM 94.3 °F 95.8 °F 63.3 °F 36% 29.91 in 10.0 mi ESE 9.2 mph - N/A   Scattered Clouds
4:15 PM 96.6 °F 98.2 °F 63.5 °F 33% 29.91 in 10.0 mi ESE 6.9 mph - N/A   Scattered Clouds
4:35 PM 95.7 °F 97.2 °F 63.1 °F 34% 29.90 in 10.0 mi ESE 6.9 mph - N/A   Clear
4:55 PM 95.9 °F 97.5 °F 63.5 °F 34% 29.90 in 10.0 mi East 4.6 mph - N/A   Clear
5:15 PM 95.5 °F 96.5 °F 62.6 °F 33% 29.90 in 10.0 mi East 5.8 mph - N/A   Clear
5:35 PM 94.1 °F 95.0 °F 62.6 °F 35% 29.90 in 10.0 mi ESE 10.4 mph - N/A   Clear
5:55 PM 92.1 °F 93.2 °F 63.5 °F 38% 29.89 in 10.0 mi East 4.6 mph - N/A   Clear
6:15 PM 92.7 °F 94.0 °F 63.5 °F 38% 29.89 in 10.0 mi East 3.5 mph - N/A   Clear
6:35 PM 91.4 °F 93.2 °F 64.4 °F 41% 29.90 in 10.0 mi ESE 5.8 mph - N/A   Clear
6:55 PM 90.0 °F 91.7 °F 64.4 °F 43% 29.90 in 10.0 mi East 4.6 mph - N/A   Clear
7:15 PM 88.7 °F 90.4 °F 64.6 °F 45% 29.90 in 10.0 mi ESE 3.5 mph - N/A   Scattered Clouds
7:35 PM 87.8 °F 89.7 °F 65.1 °F 47% 29.90 in 10.0 mi ESE 5.8 mph - N/A   Scattered Clouds
7:55 PM 88.5 °F 90.8 °F 66.2 °F 47% 29.91 in 10.0 mi SE 11.5 mph - N/A   Mostly Cloudy
8:15 PM 86.2 °F 89.7 °F 68.4 °F 55% 29.94 in 10.0 mi South 18.4 mph 28.8 mph N/A   Mostly Cloudy
8:35 PM 80.1 °F 83.4 °F 70.9 °F 73% 29.96 in 10.0 mi SSE 11.5 mph 24.2 mph N/A Thunderstorm Scattered Clouds
8:55 PM 78.1 °F - 71.6 °F 80% 29.97 in 10.0 mi SSE 10.4 mph 18.4 mph N/A Rain Rain
9:15 PM 75.4 °F - 71.6 °F 88% 29.98 in 7.0 mi SSE 8.1 mph - 0.03 in Rain Rain
9:35 PM 75.2 °F - 71.4 °F 88% 29.98 in 7.0 mi SSE 3.5 mph - 0.10 in Rain Rain
9:55 PM 75.2 °F - 71.8 °F 89% 29.98 in 7.0 mi Calm Calm - 0.12 in Rain Light Rain
10:15 PM 75.4 °F - 72.1 °F 90% 29.98 in 10.0 mi Calm Calm - N/A Rain Light Rain
10:35 PM 75.2 °F - 72.5 °F 91% 29.98 in 10.0 mi Calm Calm - N/A   Mostly Cloudy
10:55 PM 75.2 °F - 72.5 °F 91% 29.98 in 7.0 mi Calm Calm - N/A Rain Rain
11:15 PM 75.2 °F - 72.5 °F 91% 29.97 in 7.0 mi Calm Calm - N/A   Scattered Clouds
11:35 PM 75.2 °F - 72.5 °F 91% 29.97 in 10.0 mi SE 3.5 mph - 0.01 in   Scattered Clouds
11:55 PM 75.2 °F - 72.5 °F 91% 29.97 in 10.0 mi ESE 3.5 mph - 0.01 in Rain Light Rain